Tracking 31011 objects as of 13-Jul-2025
HD Live streaming from Space Station
objects crossing your sky now

GEESAT 2-07

Track GEESAT 2-07 now!
10-day predictions


NORAD ID: 58911
Int'l Code: 2024-023G
Perigee: 590.2 km
Apogee: 598.5 km
Inclination: 50.0 °
Period: 96.4 minutes
Semi major axis: 6965 km
RCS: Unknown
Launch date: February 2, 2024
Source: People's Republic of China (PRC)
Launch site: Xichang Space Center, China (XSC)
Your satellite tracking list
Your tracking list is empty




NASA's NSSDC Master Catalog

Two Line Element Set (TLE):
1 58911U 24023G   25194.15384830  .00002240  00000-0  23386-3 0  9991
2 58911  50.0048 130.2696 0005934 309.1028  50.9387 14.93447102 78512
Source of the keplerian elements: AFSPC